Retour au catalogue

SOLRAD 1

GREB

ActifScienceLEO
NORAD 46·PAYLOAD·🇺🇸 United States

Lancé Jun 22, 1960 depuis Cape Canaveral Space Force Station

Loading…

Prochains Passages (prochaines 24 heures)

TLE

FraisSource: Space-Track

Époque: Sep 10, 2026, 15:11 UTC

1 00046U 60007B   26253.63319391  .00000679  00000-0  14173-3 0  9997
2 00046  66.6904 355.2560 0200524 230.5117 127.8114 14.54973129469436

Suivez SOLRAD 1 en temps réel avec AllMySat

Download on the App Store